N4DBJ Weather Reports


time (UTC)temp
C
wind
direction
speed
KPH
gust
KPH
rain 1hr
cm
rain 24hr
cm
rain mn
cm
humidity
%
barometer
mb
20260906123010 21 330 0.0 0.0 0.00 0.00 0.00 99 1011.7
20260906122503 21 265 0.0 0.0 0.00 0.00 0.00 99 1011.3
20260906122000 21 317 0.0 0.0 0.00 0.00 0.00 99 1011.3
20260906121456 21 327 0.0 0.0 0.00 0.00 0.00 99 1011.3
20260906120952 20 319 0.0 0.0 0.00 0.00 0.00 99 1011.1
20260906120447 20 319 0.0 0.0 0.00 0.00 0.00 99 1011.3
20260906115944 20 323 0.0 0.0 0.00 0.00 0.00 99 1010.6
20260906115439 20 328 0.0 0.0 0.00 0.00 0.00 99 1010.7
20260906114938 20 328 0.0 0.0 0.00 0.00 0.00 99 1010.6
20260906114433 20 328 0.0 0.0 0.00 0.00 0.00 99 1011.0
20260906113929 20 324 0.0 0.0 0.00 0.00 0.00 99 1010.6
20260906113427 20 324 0.0 0.0 0.00 0.00 0.00 99 1010.7
20260906112923 20 324 0.0 0.0 0.00 0.00 0.00 99 1010.5
20260906112419 20 324 0.0 0.0 0.00 0.00 0.00 99 1010.3
20260906111914 20 324 0.0 0.0 0.00 0.00 0.00 99 1010.5
20260906111413 20 325 0.0 0.0 0.00 0.00 0.00 99 1010.5
20260906110908 20 343 0.0 0.0 0.00 0.00 0.00 99 1010.5
20260906110404 20 270 0.0 0.0 0.00 0.00 0.00 99 1010.2
20260906105903 20 254 0.0 0.0 0.00 0.00 0.00 99 1010.4
20260906105359 20 205 0.0 0.0 0.00 0.00 0.00 99 1010.1
20260906104854 20 219 0.0 1.6 0.00 0.00 0.00 99 1010.3
20260906104353 21 203 0.0 0.0 0.00 0.00 0.00 99 1010.2
20260906103852 21 203 0.0 0.0 0.00 0.00 0.00 99 1010.2
20260906103350 21 211 0.0 0.0 0.00 0.00 0.00 99 1010.2
20260906102846 21 206 0.0 0.0 0.00 0.00 0.00 99 1009.9
20260906102345 21 206 0.0 0.0 0.00 0.00 0.00 99 1010.1
20260906101840 21 201 0.0 0.0 0.00 0.00 0.00 99 1009.8
20260906101335 21 196 0.0 0.0 0.00 0.00 0.00 99 1009.8
20260906100831 21 223 0.0 0.0 0.00 0.00 0.00 99 1009.9
20260906100329 21 223 0.0 0.0 0.00 0.00 0.00 99 1009.8
20260906095825 21 223 0.0 0.0 0.00 0.00 0.00 99 1009.9
20260906095315 21 219 0.0 0.0 0.00 0.00 0.00 99 1010.0
20260906094814 21 197 0.0 0.0 0.00 0.00 0.00 99 1010.1
20260906094309 21 188 0.0 0.0 0.00 0.00 0.00 99 1010.0
20260906093805 21 186 0.0 0.0 0.00 0.00 0.00 99 1010.2
20260906093301 21 187 0.0 0.0 0.00 0.00 0.00 98 1009.8
20260906092755 21 187 0.0 1.6 0.00 0.00 0.00 98 1010.0
20260906092250 22 292 0.0 0.0 0.00 0.00 0.00 98 1009.7
20260906091746 22 11 0.0 0.0 0.00 0.00 0.00 97 1009.8
20260906091242 22 304 0.0 0.0 0.00 0.00 0.00 97 1009.7
20260906090738 22 310 0.0 0.0 0.00 0.00 0.00 97 1009.6
20260906090237 22 341 0.0 1.6 0.00 0.00 0.00 96 1009.7
20260906085736 22 342 0.0 0.0 0.00 0.00 0.00 96 1009.5
20260906085236 22 264 0.0 1.6 0.00 0.00 0.00 96 1009.7
20260906084730 22 214 0.0 0.0 0.00 0.00 0.00 95 1009.7
20260906084224 22 178 0.0 0.0 0.00 0.00 0.00 95 1009.6
20260906083720 22 196 0.0 1.6 0.00 0.00 0.00 95 1009.6
20260906083215 22 176 0.0 0.0 0.00 0.00 0.00 95 1009.5
20260906082710 22 277 0.0 0.0 0.00 0.00 0.00 94 1009.5
20260906082205 22 164 0.0 1.6 0.00 0.00 0.00 94 1009.8
20260906081701 22 243 0.0 1.6 0.00 0.00 0.00 94 1009.6
20260906081150 23 348 0.0 1.6 0.00 0.00 0.00 94 1009.7
20260906080647 23 243 1.6 3.2 0.00 0.00 0.00 93 1009.6
20260906080143 23 209 0.0 0.0 0.00 0.00 0.00 92 1009.6
20260906075642 23 194 0.0 0.0 0.00 0.00 0.00 92 1009.6
20260906075137 23 211 0.0 0.0 0.00 0.00 0.00 91 1009.6
20260906074632 23 15 0.0 0.0 0.00 0.00 0.00 90 1009.4
20260906074131 23 189 0.0 1.6 0.00 0.00 0.00 90 1009.7
20260906073626 24 264 0.0 1.6 0.00 0.00 0.00 89 1009.5
20260906073122 24 243 0.0 3.2 0.00 0.00 0.00 89 1009.5
20260906072616 24 187 0.0 3.2 0.00 0.00 0.00 89 1009.5
20260906072112 24 263 1.6 3.2 0.00 0.00 0.00 89 1009.5
20260906071609 24 228 0.0 1.6 0.00 0.00 0.00 89 1009.7
20260906071103 24 346 1.6 1.6 0.00 0.00 0.00 89 1009.8
20260906070600 24 244 0.0 3.2 0.00 0.00 0.00 90 1009.5
20260906070055 24 176 0.0 3.2 0.00 0.00 0.00 89 1009.8
20260906065554 25 221 1.6 1.6 0.00 0.00 0.00 90 1009.7
20260906065050 25 282 1.6 1.6 0.00 0.00 0.00 90 1009.6
20260906064546 25 136 0.0 3.2 0.00 0.00 0.00 90 1009.7
20260906064040 25 221 1.6 4.8 0.00 0.00 0.00 90 1009.7
20260906063535 25 210 1.6 3.2 0.00 0.00 0.00 89 1009.6
20260906063027 25 276 3.2 4.8 0.00 0.00 0.00 89 1009.8
20260906062521 25 174 6.4 11.3 0.00 0.00 0.00 89 1010.2
20260906062016 25 277 4.8 9.7 0.00 0.00 0.00 90 1010.0
20260906061512 25 166 4.8 8.0 0.00 0.00 0.00 90 1010.2
20260906061011 25 150 3.2 9.7 0.00 0.00 0.00 90 1010.1
20260906060508 25 158 3.2 9.7 0.00 0.00 0.00 90 1010.1
20260906060004 25 96 1.6 4.8 0.00 0.00 0.00 90 1010.3
20260906055500 24 127 4.8 9.7 0.00 0.00 0.00 91 1010.4
20260906054955 24 160 1.6 3.2 0.00 0.00 0.00 91 1010.5
20260906054455 24 181 1.6 4.8 0.00 0.00 0.00 91 1010.4
20260906053950 23 205 0.0 3.2 0.00 0.00 0.00 92 1010.5
20260906053447 23 195 1.6 1.6 0.00 0.00 0.00 93 1010.6
20260906052942 23 138 0.0 0.0 0.00 0.00 0.00 94 1010.5
20260906052438 23 152 0.0 0.0 0.00 0.00 0.00 94 1010.6
20260906051935 23 155 0.0 0.0 0.00 0.00 0.00 94 1010.7
20260906051430 23 153 0.0 0.0 0.00 0.00 0.00 94 1010.8
20260906050926 24 151 0.0 0.0 0.00 0.00 0.00 93 1010.5
20260906050425 24 171 0.0 0.0 0.00 0.00 0.00 93 1010.6
20260906045924 24 148 1.6 1.6 0.00 0.00 0.00 93 1010.6
20260906045423 25 137 0.0 0.0 0.00 0.00 0.00 92 1010.6
20260906044919 25 192 0.0 0.0 0.00 0.00 0.00 92 1010.7
20260906044414 25 212 0.0 1.6 0.00 0.00 0.00 92 1010.5
20260906043910 25 248 0.0 1.6 0.00 0.00 0.00 92 1010.6
20260906043406 25 241 0.0 1.6 0.00 0.00 0.00 92 1010.6
20260906042901 25 221 0.0 1.6 0.00 0.00 0.00 92 1010.7
20260906042400 25 130 0.0 3.2 0.00 0.00 0.00 91 1010.7
20260906041855 25 282 1.6 3.2 0.00 0.00 0.00 91 1010.7
20260906041351 25 187 1.6 4.8 0.00 0.00 0.00 91 1010.3
20260906040845 25 339 4.8 4.8 0.00 0.00 0.00 89 1010.5
20260906040341 25 212 0.0 3.2 0.00 0.00 0.00 89 1010.6
20260906035836 25 356 3.2 4.8 0.00 0.00 0.00 89 1010.9
20260906035331 25 153 0.0 0.0 0.00 0.00 0.00 89 1010.2
20260906034826 26 162 0.0 0.0 0.00 0.00 0.00 88 1010.2
20260906034321 26 163 0.0 0.0 0.00 0.00 0.00 87 1010.1
20260906033817 26 171 0.0 0.0 0.00 0.00 0.00 87 1010.4
20260906033316 26 257 0.0 0.0 0.00 0.00 0.00 87 1010.4
20260906032812 26 163 0.0 0.0 0.00 0.00 0.00 87 1010.5
20260906032308 26 337 0.0 0.0 0.00 0.00 0.00 87 1010.6
20260906031803 26 355 0.0 0.0 0.00 0.00 0.00 86 1010.3
20260906031259 26 263 0.0 0.0 0.00 0.00 0.00 85 1010.2
20260906030758 26 29 0.0 0.0 0.00 0.00 0.00 84 1010.1
20260906030254 26 194 0.0 3.2 0.00 0.00 0.00 85 1010.3
20260906025753 26 275 1.6 1.6 0.00 0.00 0.00 87 1010.1
20260906025248 26 199 0.0 4.8 0.00 0.00 0.00 86 1010.0
20260906024747 25 325 1.6 1.6 0.00 0.00 0.00 87 1010.2
20260906024245 25 22 0.0 1.6 0.00 0.00 0.00 90 1009.6
20260906023741 25 266 0.0 1.6 0.00 0.00 0.00 88 1009.7
20260906023237 25 59 0.0 1.6 0.00 0.00 0.00 88 1009.7
20260906022732 25 228 0.0 0.0 0.00 0.00 0.00 87 1009.4
20260906022227 26 201 1.6 1.6 0.00 0.00 0.00 86 1009.4
20260906021723 26 41 0.0 1.6 0.00 0.00 0.00 85 1009.3
20260906021222 26 179 0.0 0.0 0.00 0.00 0.00 84 1009.1
20260906020717 26 203 0.0 0.0 0.00 0.00 0.00 83 1009.0
20260906020212 26 128 0.0 0.0 0.00 0.00 0.00 82 1009.6
20260906015706 27 111 0.0 0.0 0.00 0.00 0.00 82 1009.1
20260906015205 27 34 0.0 3.2 0.00 0.00 0.00 81 1009.1
20260906014705 27 273 0.0 1.6 0.00 0.00 0.00 80 1009.0
20260906014201 27 163 0.0 0.0 0.00 0.00 0.00 79 1008.9
20260906013657 27 197 0.0 1.6 0.00 0.00 0.00 77 1008.9
20260906013152 28 151 0.0 1.6 0.00 0.00 0.00 78 1009.0
20260906012651 28 156 0.0 3.2 0.00 0.00 0.00 78 1008.9
20260906012146 28 207 0.0 8.0 0.00 0.00 0.00 78 1009.0
20260906011642 28 32 0.0 1.6 0.00 0.00 0.00 86 1009.0
20260906011136 28 56 0.0 3.2 0.00 0.00 0.00 82 1008.8
20260906010626 28 65 0.0 0.0 0.00 0.00 0.00 87 1008.7
20260906010123 28 46 0.0 1.6 0.00 0.00 0.00 86 1008.7
20260906005622 28 241 0.0 1.6 0.00 0.00 0.00 87 1008.7
20260906005121 27 79 3.2 4.8 0.00 0.00 0.00 87 1008.5
20260906004620 27 7 3.2 3.2 0.00 0.00 0.00 89 1008.8
20260906004115 28 249 0.0 0.0 0.00 0.00 0.00 89 1009.1
20260906003611 28 225 1.6 1.6 0.00 0.00 0.00 89 1008.9
20260906003106 28 209 0.0 0.0 0.00 0.00 0.00 88 1008.8
20260906002601 28 189 0.0 1.6 0.00 0.00 0.00 88 1009.0
20260906002056 28 168 0.0 0.0 0.00 0.00 0.00 87 1008.9
20260906001551 28 168 0.0 0.0 0.00 0.00 0.00 86 1009.0
20260906001045 28 168 0.0 0.0 0.00 0.00 0.00 85 1008.8
20260906000541 29 166 0.0 0.0 0.00 0.00 0.00 84 1008.9
20260906000036 30 193 0.0 0.0 0.00 0.00 0.00 83 1008.7
20260905235536 30 196 0.0 0.0 0.00 0.00 0.00 81 1008.7
20260905235031 30 196 0.0 0.0 0.00 0.00 0.00 79 1008.7
20260905234527 30 196 0.0 0.0 0.00 0.00 0.00 77 1009.0
20260905234027 31 196 0.0 0.0 0.00 0.00 0.00 75 1008.9
20260905233521 31 197 0.0 0.0 0.00 0.00 0.00 76 1008.8
20260905233021 32 181 0.0 0.0 0.00 0.00 0.00 72 1008.8
20260905232517 32 189 0.0 0.0 0.00 0.00 0.00 72 1008.9
20260905232012 33 190 0.0 0.0 0.00 0.00 0.00 69 1008.8
20260905231508 33 235 0.0 1.6 0.00 0.00 0.00 66 1008.6
20260905231004 35 259 0.0 1.6 0.00 0.00 0.00 63 1008.7
20260905230503 35 251 0.0 0.0 0.00 0.00 0.00 62 1008.8
20260905230001 35 274 0.0 0.0 0.00 0.00 0.00 61 1008.6
20260905225456 35 247 0.0 0.0 0.00 0.00 0.00 60 1008.5
20260905224951 35 234 0.0 0.0 0.00 0.00 0.00 61 1008.7
20260905224446 35 199 1.6 1.6 0.00 0.00 0.00 60 1008.9
20260905223945 35 247 1.6 3.2 0.00 0.00 0.00 58 1009.0
20260905223443 35 184 1.6 1.6 0.00 0.00 0.00 56 1008.8
20260905222944 35 126 1.6 3.2 0.00 0.00 0.00 58 1008.5
20260905222438 35 352 0.0 3.2 0.00 0.00 0.00 59 1008.7
20260905221934 36 238 3.2 4.8 0.00 0.00 0.00 59 1008.8
20260905221430 36 287 0.0 1.6 0.00 0.00 0.00 60 1008.7
20260905220926 36 152 0.0 1.6 0.00 0.00 0.00 60 1008.8
20260905220422 35 279 0.0 1.6 0.00 0.00 0.00 64 1008.8
20260905215921 34 138 0.0 1.6 0.00 0.00 0.00 64 1008.8
20260905215416 35 267 0.0 1.6 0.00 0.00 0.00 62 1008.9
20260905214913 36 181 0.0 1.6 0.00 0.00 0.00 54 1008.7
20260905214408 37 246 0.0 1.6 0.00 0.00 0.00 54 1008.8
20260905213908 37 218 0.0 1.6 0.00 0.00 0.00 50 1008.8
20260905213404 37 237 1.6 3.2 0.00 0.00 0.00 48 1008.7
20260905212900 37 245 0.0 1.6 0.00 0.00 0.00 53 1008.7
20260905212354 37 246 0.0 4.8 0.00 0.00 0.00 50 1008.6
20260905211847 37 32 0.0 3.2 0.00 0.00 0.00 49 1008.9
20260905211344 38 242 3.2 8.0 0.00 0.00 0.00 49 1008.8
20260905210840 38 115 1.6 3.2 0.00 0.00 0.00 48 1008.9
20260905210340 38 153 1.6 1.6 0.00 0.00 0.00 49 1008.9
20260905205838 38 244 1.6 3.2 0.00 0.00 0.00 48 1009.1
20260905205333 38 227 1.6 4.8 0.00 0.00 0.00 48 1009.1
20260905204832 38 297 1.6 1.6 0.00 0.00 0.00 48 1009.0
20260905204329 38 209 3.2 3.2 0.00 0.00 0.00 48 1009.4
20260905203827 38 274 1.6 3.2 0.00 0.00 0.00 54 1009.3
20260905203324 38 250 1.6 1.6 0.00 0.00 0.00 54 1009.3
20260905202819 37 183 0.0 1.6 0.00 0.00 0.00 51 1009.6
20260905202314 36 19 0.0 4.8 0.00 0.00 0.00 50 1009.4
20260905201809 37 138 4.8 8.0 0.00 0.00 0.00 50 1009.6
20260905201305 37 267 1.6 3.2 0.00 0.00 0.00 50 1009.7
20260905200759 37 144 4.8 4.8 0.00 0.00 0.00 50 1009.7
20260905200255 36 41 3.2 4.8 0.00 0.00 0.00 52 1009.7
20260905195753 36 189 6.4 9.7 0.00 0.00 0.00 53 1009.8
20260905195248 37 169 8.0 9.7 0.00 0.00 0.00 51 1009.9
20260905194744 37 225 4.8 8.0 0.00 0.00 0.00 51 1010.1
20260905194243 37 203 4.8 8.0 0.00 0.00 0.00 52 1010.0
20260905193743 37 269 1.6 11.3 0.00 0.00 0.00 52 1010.2
20260905193238 37 101 3.2 8.0 0.00 0.00 0.00 52 1010.1
20260905192733 37 359 1.6 1.6 0.00 0.00 0.00 55 1010.0
20260905192229 37 155 1.6 4.8 0.00 0.00 0.00 53 1010.3
20260905191729 37 277 8.0 9.7 0.00 0.00 0.00 52 1010.1
20260905191227 37 103 6.4 8.0 0.00 0.00 0.00 52 1010.3
20260905190726 37 354 0.0 8.0 0.00 0.00 0.00 53 1010.1
20260905190225 37 259 1.6 4.8 0.00 0.00 0.00 53 1010.4
20260905185724 37 286 1.6 4.8 0.00 0.00 0.00 51 1010.4
20260905185219 36 243 0.0 3.2 0.00 0.00 0.00 57 1010.6
20260905184713 36 338 0.0 0.0 0.00 0.00 0.00 60 1010.6
20260905184212 36 352 1.6 3.2 0.00 0.00 0.00 54 1010.7
20260905183706 36 45 0.0 1.6 0.00 0.00 0.00 58 1011.0
20260905183201 37 54 0.0 1.6 0.00 0.00 0.00 54 1010.7
20260905182701 37 333 1.6 1.6 0.00 0.00 0.00 54 1010.7
20260905182201 37 346 1.6 3.2 0.00 0.00 0.00 52 1010.9
20260905181656 37 42 1.6 1.6 0.00 0.00 0.00 55 1011.1
20260905181155 37 259 1.6 3.2 0.00 0.00 0.00 55 1011.3
20260905180649 37 279 1.6 1.6 0.00 0.00 0.00 58 1011.1
20260905180145 36 311 0.0 1.6 0.00 0.00 0.00 59 1011.3
20260905175644 36 11 1.6 3.2 0.00 0.00 0.00 55 1011.2
20260905175140 36 302 1.6 3.2 0.00 0.00 0.00 60 1011.4
20260905174635 37 42 4.8 4.8 0.00 0.00 0.00 54 1011.4
20260905174131 36 184 0.0 3.2 0.00 0.00 0.00 55 1011.4
20260905173626 36 80 1.6 3.2 0.00 0.00 0.00 56 1011.6
20260905173122 36 4 1.6 4.8 0.00 0.00 0.00 56 1011.5
20260905172621 36 210 1.6 4.8 0.00 0.00 0.00 59 1011.7
20260905172116 36 265 4.8 4.8 0.00 0.00 0.00 55 1011.5
20260905171612 36 31 0.0 1.6 0.00 0.00 0.00 62 1011.8
20260905171108 36 355 1.6 3.2 0.00 0.00 0.00 60 1011.6
20260905170604 36 53 1.6 1.6 0.00 0.00 0.00 58 1011.7
20260905170059 36 27 1.6 1.6 0.00 0.00 0.00 59 1011.6
20260905165554 36 241 1.6 3.2 0.00 0.00 0.00 62 1011.8
20260905165049 36 252 3.2 4.8 0.00 0.00 0.00 59 1011.8
20260905164544 36 213 0.0 1.6 0.00 0.00 0.00 60 1011.9
20260905164038 35 339 0.0 3.2 0.00 0.00 0.00 63 1011.7
20260905163534 35 14 1.6 3.2 0.00 0.00 0.00 59 1011.8
20260905163030 35 236 1.6 4.8 0.00 0.00 0.00 62 1011.8
20260905162527 35 40 1.6 3.2 0.00 0.00 0.00 65 1012.0
20260905162021 35 48 1.6 3.2 0.00 0.00 0.00 64 1012.2
20260905161520 35 295 1.6 3.2 0.00 0.00 0.00 64 1012.2
20260905161018 35 53 1.6 1.6 0.00 0.00 0.00 63 1012.4
20260905160511 35 358 1.6 3.2 0.00 0.00 0.00 65 1012.0
20260905160006 34 25 1.6 1.6 0.00 0.00 0.00 65 1012.3
20260905155506 33 97 1.6 1.6 0.00 0.00 0.00 71 1012.4
20260905155004 33 30 0.0 1.6 0.00 0.00 0.00 72 1012.5
20260905154500 33 317 0.0 3.2 0.00 0.00 0.00 69 1012.6
20260905153955 33 27 1.6 1.6 0.00 0.00 0.00 73 1012.6
20260905153452 32 50 1.6 3.2 0.00 0.00 0.00 76 1012.7
20260905152951 33 144 0.0 3.2 0.00 0.00 0.00 70 1012.6
20260905152451 32 4 0.0 1.6 0.00 0.00 0.00 74 1012.8
20260905151946 32 154 0.0 1.6 0.00 0.00 0.00 70 1012.6
20260905151441 32 46 1.6 1.6 0.00 0.00 0.00 74 1012.8
20260905150936 32 40 0.0 1.6 0.00 0.00 0.00 75 1012.8
20260905150436 31 90 0.0 1.6 0.00 0.00 0.00 77 1012.6
20260905145932 31 37 1.6 3.2 0.00 0.00 0.00 76 1012.6
20260905145427 31 52 0.0 1.6 0.00 0.00 0.00 78 1012.8
20260905144927 31 53 0.0 1.6 0.00 0.00 0.00 76 1012.7
20260905144423 31 117 0.0 1.6 0.00 0.00 0.00 80 1012.7
20260905143921 30 32 0.0 1.6 0.00 0.00 0.00 82 1012.6
20260905143415 30 60 1.6 1.6 0.00 0.00 0.00 81 1012.7
20260905142915 28 124 1.6 3.2 0.00 0.00 0.00 82 1012.7
20260905142414 28 81 1.6 1.6 0.00 0.00 0.00 88 1012.9
20260905141910 27 78 1.6 1.6 0.00 0.00 0.00 92 1013.0
20260905141404 26 72 0.0 1.6 0.00 0.00 0.00 97 1012.9
20260905140901 26 62 0.0 1.6 0.00 0.00 0.00 99 1013.0
20260905140355 25 77 0.0 1.6 0.00 0.00 0.00 99 1012.9
20260905135854 25 33 0.0 0.0 0.00 0.00 0.00 99 1012.9
20260905135350 25 56 0.0 1.6 0.00 0.00 0.00 99 1012.9
20260905134845 25 49 0.0 0.0 0.00 0.00 0.00 99 1012.8
20260905134344 24 46 0.0 0.0 0.00 0.00 0.00 99 1013.1
20260905133838 23 30 0.0 0.0 0.00 0.00 0.00 99 1013.1
20260905133334 23 63 0.0 0.0 0.00 0.00 0.00 99 1013.0
20260905132833 23 43 0.0 0.0 0.00 0.00 0.00 99 1013.1
20260905132329 23 53 0.0 0.0 0.00 0.00 0.00 99 1013.0
20260905131823 23 135 0.0 0.0 0.00 0.00 0.00 99 1013.0
20260905131319 23 135 0.0 0.0 0.00 0.00 0.00 99 1012.8
20260905130814 23 135 0.0 0.0 0.00 0.00 0.00 99 1012.9
20260905130312 23 135 0.0 0.0 0.00 0.00 0.00 99 1013.0
20260905125808 23 135 0.0 0.0 0.00 0.00 0.00 99 1012.8
20260905125305 23 187 0.0 0.0 0.00 0.00 0.00 99 1012.7
20260905124759 22 192 0.0 0.0 0.00 0.00 0.00 99 1012.9
20260905124254 22 185 0.0 0.0 0.00 0.00 0.00 99 1013.0
20260905123749 22 173 0.0 0.0 0.00 0.00 0.00 99 1012.9